Theta_e
307 297 292 291 294 295 296 297 298 296 295 294 296 295 291 292 293 295 295 296 297 294 292 293 294 294 295 297 298 299 299 298 298 297 298 300 301 301 301 302 302 303 303 306 308 309 309 309 310 310 310 311 312 313 313 314 314 314 314 313 312 313 315 314 313 313 313 313 310 311 313 312 312 313 312 312 314 316 316 313 313 315 316 319 319 317
303 295 295 296 298 299 298 298 297 297 294 294 294 293 291 295 291 296 295 296 296 293 290 292 292 293 295 296 297 298 298 298 298 298 299 299 300 301 302 302 303 303 305 309 308 309 308 308 309 308 309 308 310 311 312 313 313 314 313 313 312 313 315 314 313 312 313 313 312 311 312 312 313 314 312 311 308 312 312 312 311 310 313 314 316 315
294 291 296 299 299 298 298 297 296 295 296 295 292 291 292 292 294 295 295 296 297 294 289 291 290 293 295 296 297 298 298 300 300 300 300 299 299 301 301 302 303 302 303 308 308 308 307 308 308 307 307 308 310 310 311 311 312 312 312 313 313 313 314 313 312 311 311 311 311 312 310 312 311 314 314 313 308 307 309 309 310 310 312 313 313 313
290 293 297 300 299 296 296 295 296 297 297 294 292 290 288 295 291 288 292 295 295 293 289 290 290 293 296 298 298 299 299 300 301 300 300 301 300 300 301 303 303 302 303 305 307 307 306 307 307 306 306 307 308 308 308 310 311 312 311 312 312 312 313 312 311 310 311 311 311 313 310 312 308 304 305 306 305 304 305 306 306 306 309 311 310 310
292 298 299 298 298 297 295 296 294 292 290 294 295 293 292 294 294 292 292 294 295 295 295 292 292 292 295 295 295 298 300 299 300 299 300 301 303 303 304 304 304 302 302 303 305 307 305 306 306 306 306 306 307 307 308 309 310 312 311 311 312 311 311 311 309 310 311 310 307 304 302 302 302 301 302 303 302 304 304 303 303 303 305 308 308 308
295 298 301 296 299 296 297 292 293 295 288 291 295 295 294 295 293 296 296 293 289 288 294 294 282 284 290 292 293 296 297 297 299 299 299 301 301 302 302 303 303 305 304 304 304 305 305 306 305 304 304 305 306 306 308 309 310 310 310 310 311 310 310 310 310 310 311 308 306 303 303 301 300 300 300 303 304 302 302 302 301 301 302 305 306 307
295 298 300 298 297 296 297 295 296 296 290 289 290 297 299 296 296 294 294 291 282 281 293 295 284 281 287 290 293 294 294 294 295 298 299 300 301 301 302 302 303 304 304 305 305 305 304 304 304 304 304 304 305 305 307 308 309 309 310 310 311 310 309 309 309 310 309 308 307 305 306 305 304 303 302 305 305 304 303 303 300 300 299 302 304 304
296 296 297 298 298 295 295 291 297 296 291 287 295 297 298 296 294 294 293 292 287 293 294 294 291 282 283 289 293 295 294 294 294 295 297 298 299 300 301 303 303 304 304 306 305 305 304 304 304 304 304 304 305 306 308 308 309 309 309 309 310 309 308 309 309 310 308 307 307 307 306 306 305 305 303 304 303 303 302 302 301 298 298 298 301 303
297 294 297 296 295 292 292 295 299 298 293 294 295 299 296 297 296 295 292 290 289 287 283 288 293 283 282 288 293 294 291 292 293 294 296 299 299 298 301 304 304 305 305 306 305 305 304 304 304 303 304 304 305 306 308 308 308 308 308 308 309 308 307 308 308 307 306 307 307 307 307 306 307 306 303 303 303 302 301 301 299 297 297 297 297 300
297 297 298 299 294 291 296 294 298 299 291 295 298 299 298 298 297 294 289 288 286 283 280 286 291 281 284 287 290 291 290 291 292 294 297 298 298 299 303 302 303 303 303 303 303 304 304 303 303 303 304 304 305 306 308 308 308 308 307 307 308 307 306 307 307 305 305 306 306 307 307 307 308 308 305 304 302 301 300 301 297 297 296 295 295 297
297 297 297 299 296 298 293 295 296 297 298 298 298 296 295 293 290 290 288 285 283 279 281 290 291 287 280 287 288 289 290 292 293 294 296 302 302 303 304 302 302 303 303 303 302 301 301 301 302 302 303 303 304 305 307 307 307 307 307 306 306 306 305 306 305 304 304 305 306 307 307 308 308 308 305 303 301 300 299 300 297 296 295 295 295 295
297 297 296 298 298 298 297 294 297 299 298 298 294 290 290 288 287 285 284 285 279 278 285 289 291 289 278 282 292 294 296 294 293 293 294 298 301 304 303 303 303 302 302 302 300 299 299 300 301 300 301 302 303 305 306 306 306 306 306 306 305 305 304 304 304 303 303 304 305 307 308 308 309 308 305 303 301 300 299 300 297 295 294 294 295 295
291 293 296 296 297 297 295 292 292 295 296 297 291 289 283 281 281 279 282 277 278 277 283 283 289 285 284 288 292 293 294 295 296 297 297 298 300 305 304 302 301 301 301 300 299 298 298 297 297 298 298 300 302 304 305 306 306 306 305 305 304 304 303 303 302 302 303 303 304 305 307 308 309 307 305 304 302 301 300 300 297 294 294 294 293 294
288 294 295 295 295 298 298 289 285 284 290 293 288 283 281 276 276 273 277 280 281 283 282 284 288 282 288 291 294 295 297 295 295 296 299 299 299 299 301 304 303 301 300 301 301 300 299 299 299 299 299 300 301 302 304 304 305 305 305 304 304 303 303 302 302 302 302 302 304 305 306 308 308 308 305 304 303 301 301 300 298 296 296 294 294 294
281 282 290 292 287 297 296 294 292 289 290 292 293 290 284 280 276 273 276 275 276 279 283 285 280 279 279 285 293 295 296 297 298 298 300 301 301 302 302 301 301 302 300 301 301 302 302 302 300 300 300 300 301 303 304 304 304 304 304 304 303 302 303 302 301 301 301 301 302 304 306 308 308 307 305 304 304 301 300 298 298 297 297 297 296 295
286 286 294 297 295 297 295 298 298 294 290 290 293 294 286 283 285 278 280 282 280 280 279 280 280 283 286 292 295 296 294 296 295 295 297 298 298 300 300 299 299 299 301 301 300 301 302 302 301 300 299 300 301 302 303 303 304 304 304 303 303 303 303 302 300 300 300 301 302 303 305 306 306 304 303 302 302 300 301 299 299 298 298 298 297 297
286 282 294 296 296 295 296 298 298 297 282 288 291 284 288 292 290 284 281 282 280 278 277 281 283 287 290 293 294 294 295 294 295 295 294 295 299 300 298 299 300 299 300 300 301 301 301 300 300 301 300 300 300 301 303 303 304 304 303 303 302 302 302 302 301 300 299 300 301 302 304 305 305 303 302 301 300 300 300 300 300 300 299 298 298 296
284 287 290 292 291 295 293 296 298 295 298 291 283 288 293 294 292 285 278 280 277 276 278 280 279 282 280 282 291 289 290 291 292 292 295 296 295 297 298 299 300 300 301 301 301 302 302 301 300 300 300 300 301 301 302 303 303 304 304 303 303 302 302 302 302 300 299 299 299 300 303 304 304 303 302 301 300 299 299 299 299 300 298 298 297 295
293 283 287 291 292 294 297 296 295 297 296 292 289 298 289 281 281 283 280 274 273 273 275 278 280 281 284 286 289 290 290 291 292 292 293 293 295 296 297 298 299 302 303 302 301 301 301 299 299 300 299 300 300 301 302 303 304 303 303 303 303 302 302 302 302 301 299 299 299 300 300 302 302 302 302 301 301 299 298 298 298 298 298 297 296 294
293 283 285 288 291 294 293 292 284 286 294 297 296 292 295 287 282 281 281 280 280 274 273 276 278 279 288 289 290 290 291 293 295 293 293 294 296 297 297 298 301 301 302 301 301 300 301 300 299 299 299 299 300 301 302 302 303 303 303 302 302 302 302 302 301 299 299 298 298 298 298 300 301 301 301 300 300 299 298 297 297 297 295 295 294 293
287 289 281 285 290 292 283 288 286 289 286 285 286 284 288 285 289 284 284 282 278 275 275 274 276 281 289 292 291 291 292 292 292 293 294 295 296 297 298 301 303 302 301 302 301 301 301 299 297 297 297 297 297 298 300 302 302 302 302 302 302 301 301 301 300 299 299 298 298 297 297 297 299 299 299 299 299 297 297 297 296 295 294 291 291 291
286 284 283 283 283 284 287 293 293 293 293 290 289 287 290 285 282 278 279 287 283 281 276 277 276 283 292 294 295 293 294 295 296 295 297 297 298 298 300 304 301 301 301 302 301 300 299 298 297 296 296 295 295 296 298 301 300 300 301 302 301 301 300 300 299 298 298 298 298 297 297 297 297 297 295 295 296 295 294 294 294 294 292 290 289 290
293 288 283 281 283 287 291 295 296 296 295 293 292 288 291 290 286 281 277 279 284 282 284 280 278 283 293 293 293 294 295 295 296 295 295 296 296 297 302 304 302 301 301 302 300 298 298 296 295 294 294 294 295 297 297 298 300 300 299 299 299 300 300 301 300 298 298 297 296 296 296 295 295 294 293 293 293 293 293 293 293 292 291 290 289 288
295 285 283 284 289 293 293 294 294 295 295 291 291 292 290 287 288 285 282 282 281 281 281 280 279 284 293 293 294 295 295 294 295 297 296 296 299 299 301 302 301 301 300 299 297 296 296 295 294 293 292 294 295 295 297 298 298 299 299 299 299 299 300 300 300 298 297 297 295 294 293 294 293 293 293 292 292 292 292 292 291 290 291 290 289 288
287 285 285 281 281 284 286 289 287 291 291 286 286 291 292 292 291 287 286 285 282 283 283 281 277 283 292 291 292 294 294 295 294 296 298 298 297 299 300 301 301 299 299 298 299 297 294 293 292 293 293 294 294 294 295 297 298 298 298 298 299 300 299 300 299 297 297 295 293 293 293 293 292 293 293 293 293 292 291 291 290 289 290 289 288 288
290 288 287 281 278 277 276 278 279 282 284 286 287 290 293 291 290 285 283 282 281 284 285 283 282 288 293 293 293 292 292 294 294 295 296 297 297 299 299 300 300 299 299 299 297 297 295 294 293 292 292 294 295 295 295 296 296 297 297 298 298 298 298 299 297 296 295 294 293 293 293 293 292 292 293 293 293 292 291 290 289 289 289 289 288 287
286 288 289 287 286 283 283 285 289 291 285 284 285 288 289 292 293 290 286 284 282 285 283 285 286 287 289 292 292 293 292 293 294 294 295 297 296 296 296 298 298 298 298 297 298 297 295 293 295 294 294 295 294 294 295 295 296 296 296 296 297 298 298 298 296 294 294 294 294 293 293 293 293 293 292 292 292 291 290 289 289 288 288 288 288 287
287 287 289 289 287 288 290 291 294 292 287 288 286 285 289 289 290 289 287 285 290 283 282 288 289 286 289 292 293 291 293 293 296 295 296 296 297 298 299 299 299 297 296 296 296 296 297 297 296 295 295 295 295 295 294 295 295 296 296 296 295 295 296 298 295 293 293 293 293 293 293 293 293 292 292 292 291 290 289 288 288 288 288 287 287 287
287 286 289 289 288 290 291 291 292 292 292 291 289 288 287 289 289 287 288 290 290 285 283 288 288 287 290 293 294 293 294 296 296 297 296 296 296 296 296 297 297 297 296 296 297 297 297 297 298 297 296 296 294 293 293 293 293 293 294 295 295 295 295 295 294 293 292 292 293 293 293 292 292 291 291 291 290 289 288 288 287 286 287 286 287 287
288 285 288 289 287 289 290 290 291 291 291 290 291 291 291 290 289 290 290 291 291 288 290 290 290 289 292 294 295 296 297 298 299 299 299 299 299 299 298 297 297 298 297 299 299 299 300 300 300 299 298 296 294 294 293 293 293 294 294 295 295 295 296 294 295 294 293 293 293 293 292 291 291 290 290 290 290 289 288 287 286 285 286 286 286 286
291 285 290 288 285 286 289 291 291 290 289 288 290 292 293 293 291 290 290 290 290 290 291 291 289 289 295 297 297 298 299 299 298 298 298 299 299 299 297 297 298 298 299 300 300 300 300 300 300 300 299 298 296 295 295 295 295 294 293 294 294 295 295 295 295 294 293 293 293 292 291 291 291 290 289 289 289 288 287 286 285 285 285 286 285 285
290 285 288 286 284 284 288 288 289 289 288 287 287 289 290 290 288 290 288 291 289 287 289 288 287 288 294 295 297 298 298 297 297 298 298 299 299 299 298 298 299 299 300 300 299 300 300 300 300 300 299 299 298 297 296 295 295 294 293 294 294 295 294 294 294 294 293 293 292 292 291 291 290 289 289 288 288 288 286 285 284 284 285 285 284 285
287 286 285 285 283 284 287 288 286 286 286 284 285 288 290 291 292 292 293 293 293 293 288 286 287 293 295 296 295 296 297 297 297 298 298 299 299 298 297 299 299 300 300 301 300 300 299 299 299 300 300 300 301 299 298 297 295 294 294 294 295 294 293 294 294 294 293 293 292 291 291 290 290 289 288 287 287 286 286 285 284 284 283 283 284 285
288 287 286 287 282 284 287 284 284 283 278 280 292 294 294 291 291 289 289 292 294 295 292 294 294 296 296 296 295 295 296 297 298 299 300 300 299 298 297 298 299 299 299 300 301 300 299 300 300 300 300 300 299 298 298 296 296 296 295 293 290 292 294 294 293 293 293 292 291 291 290 290 289 288 288 287 286 285 285 284 284 284 284 284 284 284
287 287 285 287 284 283 286 284 282 277 279 290 294 296 296 295 294 292 293 294 294 295 295 295 295 296 297 298 298 298 298 299 299 299 300 301 300 299 299 299 300 300 300 301 301 301 301 301 301 300 298 297 297 296 295 293 294 294 291 292 292 292 293 293 293 292 292 291 291 290 289 289 289 288 287 286 285 284 284 284 284 283 284 284 284 284
286 286 285 285 286 286 283 282 276 278 286 289 292 294 296 295 294 292 290 293 295 295 295 294 296 297 298 298 299 299 298 298 298 297 299 300 300 299 299 300 300 300 300 301 301 301 301 300 300 298 298 296 295 296 293 295 292 290 292 290 292 291 292 292 291 291 291 291 290 290 289 289 288 287 287 286 285 284 284 283 283 283 283 284 284 284
289 287 286 284 287 281 283 282 281 287 286 287 288 289 289 286 286 288 285 288 294 296 295 295 295 297 297 298 298 299 297 295 294 298 300 299 299 299 300 301 300 301 300 300 300 300 301 298 296 297 295 293 292 293 293 290 290 290 288 289 290 290 290 290 290 291 291 290 290 289 289 289 288 287 286 285 284 284 284 283 282 282 283 283 284 284
293 287 288 285 283 286 282 280 280 280 277 283 290 293 295 294 295 294 290 288 295 295 296 296 295 296 296 297 296 294 293 291 291 295 299 296 297 299 297 297 298 298 297 296 295 294 294 292 292 291 292 291 291 291 291 290 289 289 289 289 289 289 289 289 290 291 290 290 289 289 288 288 287 286 285 285 284 284 283 283 282 282 283 283 283 283
294 293 289 286 284 284 282 278 278 277 280 286 288 291 292 294 295 292 289 286 291 294 295 295 295 295 295 294 292 292 291 289 290 294 299 297 294 294 294 294 293 293 292 292 291 292 291 290 289 290 290 289 292 291 290 289 288 289 289 289 289 289 289 289 290 289 289 289 288 288 287 287 287 286 285 285 284 283 283 282 282 282 282 282 283 283
288 288 287 283 282 284 282 280 278 283 282 286 288 288 289 291 294 289 279 281 291 292 293 293 294 294 294 293 293 291 290 289 290 294 294 293 294 293 292 293 295 295 294 291 291 290 289 288 290 291 290 290 291 289 288 287 287 288 289 289 287 288 289 289 289 288 287 287 287 287 287 286 286 286 285 285 283 283 283 283 282 282 282 282 283 283
285 285 286 282 284 284 284 281 283 283 288 291 291 290 290 293 291 283 278 285 289 289 290 292 291 291 291 291 291 288 289 291 292 293 294 294 294 295 295 290 289 289 291 291 292 290 290 289 288 290 290 289 288 287 286 286 287 288 288 287 286 288 289 288 286 287 287 287 286 286 286 286 286 285 285 285 284 283 283 282 282 281 281 281 282 282
282 283 284 286 283 282 283 281 280 284 287 289 287 291 291 289 282 281 286 289 289 289 289 289 288 288 288 288 289 289 293 293 292 293 293 294 293 293 294 294 292 290 291 290 290 290 290 289 289 288 288 287 287 285 285 285 286 288 287 286 287 288 285 286 286 286 286 286 285 285 285 285 285 285 285 284 283 282 282 281 281 282 282 282 282 281
280 280 278 281 284 285 284 281 280 276 287 291 291 289 290 285 283 287 287 287 288 288 290 290 289 289 288 288 289 291 290 291 291 292 292 293 293 293 293 294 294 292 292 292 293 292 288 289 290 289 288 287 284 284 284 284 286 286 286 286 288 285 285 285 285 285 286 285 284 284 284 284 284 284 283 283 283 282 281 281 281 281 282 282 281 281
285 280 279 282 285 279 280 279 279 286 288 292 293 285 286 289 291 289 288 288 289 288 290 290 289 289 289 289 289 289 290 290 291 291 292 292 293 293 293 293 293 293 291 289 289 289 288 288 288 288 288 286 284 283 282 284 285 286 285 287 284 283 283 284 284 285 285 284 284 284 283 283 283 283 283 283 283 282 281 281 281 281 281 282 281 280
286 284 284 280 284 283 281 283 286 285 287 291 293 291 292 294 293 289 289 287 287 289 290 288 289 289 289 289 288 287 288 289 289 290 290 291 291 292 292 292 292 292 291 290 290 289 287 287 287 287 287 287 284 283 283 283 285 285 285 285 283 283 284 284 284 284 284 283 283 283 283 283 283 283 283 283 283 282 281 281 281 281 281 281 281 280
284 283 283 282 280 284 284 286 287 285 286 286 289 290 290 289 288 290 291 289 289 289 290 290 290 290 288 288 287 286 287 288 289 290 290 291 291 291 291 292 292 292 291 290 288 288 287 287 286 286 286 287 285 283 283 283 284 284 285 282 282 282 283 283 283 283 283 282 283 283 282 282 282 282 283 283 283 282 281 281 281 281 281 281 280 280
284 284 282 280 281 282 277 285 281 283 284 284 287 288 287 288 289 290 289 289 288 288 288 287 290 290 290 287 286 287 288 288 288 289 289 290 290 290 291 291 291 291 291 290 290 288 287 286 286 287 287 286 287 282 282 282 283 284 282 281 281 281 282 283 283 283 282 282 282 281 282 282 282 282 282 283 283 283 282 282 281 281 280 280 280 279
278 284 279 279 281 280 279 285 284 284 284 284 287 287 287 288 287 289 290 291 290 288 288 289 287 288 287 288 288 286 288 288 287 288 289 289 290 290 290 290 290 291 291 291 289 286 285 285 285 286 286 286 287 283 282 282 282 281 281 280 281 282 283 283 283 283 282 282 282 282 283 283 281 282 282 282 282 281 281 281 282 281 280 280 280 279
279 282 275 280 278 280 282 282 283 284 283 285 287 287 287 286 287 287 288 288 288 289 290 290 289 289 288 290 289 287 287 288 288 287 288 289 289 289 290 290 290 290 290 290 290 286 286 285 285 285 285 286 286 283 281 280 279 279 280 280 281 283 283 283 283 284 283 283 283 282 283 283 282 283 283 282 282 282 282 281 281 281 281 282 282 282
280 277 279 279 277 277 278 280 282 279 278 282 282 285 286 286 286 287 287 287 288 288 289 289 290 289 289 289 288 287 287 288 289 289 288 289 289 289 289 290 290 290 290 290 289 285 284 283 283 284 284 285 284 281 281 279 279 279 279 281 282 283 283 283 283 283 282 282 282 282 282 282 282 282 282 281 280 279 279 281 283 282 281 281 283 284
280 280 280 277 278 277 280 280 282 281 281 283 285 286 285 285 286 286 287 287 287 287 289 289 288 288 288 287 286 287 287 288 288 289 288 289 289 290 290 289 289 289 290 289 288 287 285 284 283 282 283 283 282 281 280 279 278 279 279 281 282 283 283 282 282 282 282 282 281 282 281 281 281 281 281 280 279 279 278 279 282 284 284 283 283 284
Wind_Speed
1 2 3 3 4 5 4 6 2 4 4 2 1 0 3 4 2 3 3 2 0 1 5 8 9 10 10 10 9 8 6 6 5 5 6 6 8 9 9 10 11 10 11 5 8 10 11 12 11 10 9 9 8 8 9 10 10 11 11 11 11 9 8 8 8 7 8 7 5 4 6 6 4 4 3 4 5 5 5 5 3 3 7 7 8 8
0 1 4 5 5 1 2 3 2 1 3 2 2 3 4 1 2 2 1 1 3 1 2 4 6 10 9 7 7 6 7 11 9 8 9 10 10 8 9 11 12 12 3 4 5 5 7 8 8 8 8 9 11 10 11 12 12 11 10 12 10 9 9 9 9 8 8 7 7 7 6 5 6 6 7 7 5 6 5 5 4 3 4 6 7 8
1 4 4 5 3 4 4 4 5 3 2 2 0 1 1 4 2 2 3 0 0 1 6 5 6 12 12 8 8 8 9 12 9 9 11 9 9 9 8 11 13 7 7 6 7 6 7 7 7 7 7 8 10 10 11 10 8 9 10 10 9 10 10 9 9 9 9 5 4 5 4 6 5 5 5 4 4 4 5 4 4 3 4 6 6 7
2 4 10 2 3 5 3 4 1 1 0 1 2 1 3 1 1 2 1 1 3 2 3 4 6 13 16 10 12 14 14 15 14 9 9 8 9 9 10 10 9 8 7 7 8 8 7 8 8 7 7 8 6 6 6 7 9 9 8 8 10 10 9 8 10 9 6 6 4 4 4 6 6 5 4 4 4 4 4 5 4 3 4 5 6 7
4 1 2 4 2 2 3 1 3 2 2 4 4 3 3 2 1 1 1 2 2 3 2 6 7 8 10 11 5 7 13 11 9 6 6 7 7 9 7 7 6 6 6 7 7 7 8 8 9 10 8 7 8 8 9 9 9 8 9 8 9 8 9 7 9 10 8 7 6 5 7 7 7 5 5 5 4 6 5 4 4 5 4 5 6 7
3 0 1 4 1 1 1 3 4 3 3 2 6 8 5 3 2 3 3 5 3 1 0 1 7 5 1 3 6 3 3 3 5 6 7 10 9 7 8 11 7 6 5 5 5 7 10 10 7 6 7 8 8 8 8 8 8 7 8 8 8 7 7 8 9 10 9 8 9 8 8 8 6 7 8 11 11 8 7 7 3 3 4 5 6 6
1 0 0 4 4 3 1 2 4 4 3 1 1 3 3 1 4 1 1 1 2 1 1 0 0 9 4 13 14 12 12 9 4 6 9 8 9 7 10 7 6 7 6 5 5 3 7 7 8 7 8 8 8 6 5 6 7 7 8 8 9 8 8 7 8 9 8 8 8 10 9 7 8 9 6 3 4 7 5 5 6 5 3 4 6 5
3 2 4 1 4 4 3 3 1 5 1 3 1 2 0 2 2 1 1 2 3 1 2 5 4 6 10 11 8 11 14 12 8 8 9 9 9 9 6 6 6 5 5 6 5 6 5 8 10 10 9 8 9 7 7 7 7 9 8 8 9 7 8 7 8 10 9 9 8 8 7 7 7 6 6 5 5 5 6 6 6 5 5 4 4 6
2 5 4 3 2 3 5 1 5 5 3 1 1 3 2 4 4 1 2 1 2 2 7 3 1 4 6 3 6 9 9 9 9 7 8 11 11 7 5 6 5 4 4 5 5 4 4 6 6 6 8 7 7 7 8 7 7 6 6 7 7 8 8 8 8 9 8 8 9 9 8 8 6 5 6 5 6 6 6 7 5 6 5 4 3 5
3 1 2 5 5 5 3 2 3 5 3 1 2 2 4 3 2 2 1 1 2 2 8 5 4 3 16 4 5 5 6 8 6 7 9 10 8 5 6 6 5 4 3 2 2 2 2 3 6 6 7 6 7 7 6 6 6 6 6 7 8 6 7 7 8 8 9 8 8 9 10 10 8 7 6 7 7 7 7 7 7 6 6 5 4 4
1 3 4 1 3 1 4 3 3 4 2 5 3 4 2 1 1 1 1 1 2 4 7 9 8 4 9 4 8 7 7 8 6 3 4 1 5 5 5 6 5 4 3 3 2 3 3 2 5 6 7 6 5 5 6 6 6 6 6 7 7 7 6 7 8 8 9 8 7 9 10 11 10 9 8 8 8 7 7 8 7 7 6 5 5 4
1 1 0 0 2 3 4 4 5 1 2 3 1 2 2 1 2 1 1 2 1 8 2 2 8 7 5 5 2 3 0 3 2 3 4 4 5 5 5 5 5 5 5 5 4 4 3 1 1 3 5 6 7 6 7 6 6 6 6 7 8 7 7 6 7 8 8 8 8 8 10 11 10 9 8 10 10 9 10 8 8 5 5 6 5 5
2 3 1 3 5 2 3 6 3 3 1 1 2 3 5 2 2 2 1 2 5 7 1 2 1 3 14 13 2 2 2 2 1 2 2 4 4 5 5 5 5 5 4 5 5 5 4 5 5 5 5 5 7 9 8 8 7 6 6 7 8 7 7 8 8 9 8 8 9 9 10 10 9 8 8 9 8 8 9 8 7 7 7 6 6 7
2 1 4 2 4 4 4 8 2 1 3 3 6 7 5 3 3 4 4 2 2 1 3 1 3 5 10 11 7 16 12 5 5 4 3 2 2 2 2 4 5 4 5 5 5 5 5 7 7 6 6 6 5 6 6 6 7 6 6 7 8 8 7 7 8 9 9 9 9 9 9 10 9 9 9 8 8 8 8 8 9 9 9 9 10 9
3 4 5 6 3 6 6 8 12 7 9 10 4 8 8 6 4 4 4 6 6 4 0 4 2 8 2 6 0 4 2 1 1 5 2 0 1 1 2 1 3 5 5 5 6 7 8 9 8 8 7 6 6 7 8 7 6 6 7 8 9 8 9 8 9 8 9 8 8 8 9 9 8 8 8 7 6 8 8 7 8 8 8 9 9 10
10 5 2 14 1 12 12 5 6 4 2 4 4 1 3 9 1 3 1 0 0 1 1 2 6 2 5 4 12 6 6 6 4 6 5 6 4 1 2 5 6 4 6 6 6 7 7 7 7 6 7 7 7 7 7 8 7 7 7 7 8 9 9 9 9 8 9 8 8 9 10 10 9 6 6 6 5 7 8 8 9 9 9 8 8 8
3 4 2 3 4 15 10 4 4 7 5 5 4 7 6 1 0 1 2 2 2 2 9 3 6 9 6 16 15 11 15 11 11 9 6 5 1 1 5 7 9 7 4 5 6 7 7 5 6 7 7 6 6 7 8 8 8 9 9 9 8 8 8 9 9 10 9 9 8 9 10 9 8 7 7 8 7 8 8 8 8 7 8 8 7 6
6 3 2 2 4 0 1 1 0 4 1 6 4 5 1 3 2 3 4 1 2 7 8 3 8 11 3 14 4 3 1 2 2 5 8 10 6 5 8 8 10 6 4 7 6 6 6 5 6 5 5 6 7 7 7 8 7 8 9 9 10 10 11 10 10 10 9 10 9 8 10 10 9 8 7 7 8 7 7 7 7 6 6 7 6 6
3 3 2 2 3 2 3 1 1 2 4 3 3 1 5 2 4 3 2 5 5 4 4 4 6 7 10 18 9 12 8 5 3 5 6 6 7 7 7 8 6 4 2 1 2 2 2 4 5 6 6 6 7 7 7 7 8 7 7 8 9 11 11 11 9 8 8 9 8 8 9 10 10 9 9 8 8 8 8 9 8 8 8 6 7 8
2 4 1 2 2 0 1 3 9 2 2 1 3 1 0 1 2 6 6 1 2 6 3 8 5 8 10 11 6 5 5 7 12 7 6 7 7 8 6 5 5 4 2 2 3 4 3 5 6 7 7 7 8 7 7 7 7 8 8 8 8 8 8 9 10 10 11 10 10 9 8 9 9 9 9 9 9 9 10 9 9 8 7 9 8 8
3 4 5 0 4 1 1 4 7 9 9 3 1 2 1 1 1 3 3 5 5 3 5 4 8 8 13 4 5 5 4 4 4 4 5 5 5 4 2 1 4 4 4 4 5 5 4 2 2 3 4 4 4 5 6 7 9 8 8 8 8 9 7 8 7 8 9 9 10 11 11 10 10 10 8 9 9 9 9 8 8 8 8 7 8 9
1 4 7 3 0 5 6 6 11 14 15 13 13 12 13 8 4 4 8 1 1 4 3 3 11 9 17 3 7 1 1 2 3 6 5 3 2 2 2 1 4 5 4 5 5 4 2 2 2 2 2 2 4 5 6 6 5 7 8 8 8 7 8 9 8 8 7 7 8 10 11 11 9 9 7 8 8 9 8 8 8 8 7 9 8 9
5 2 3 5 8 9 6 1 7 0 2 5 8 9 10 7 5 4 7 4 0 3 1 3 4 16 13 6 1 5 2 2 5 5 4 4 5 4 2 1 1 2 2 4 5 5 4 3 3 4 5 5 6 6 6 6 7 8 7 7 7 8 9 9 10 9 9 9 9 9 8 9 9 9 10 10 8 9 9 8 8 8 9 9 8 7
7 1 1 3 2 1 2 1 2 0 1 1 4 1 5 8 8 6 4 3 5 2 4 3 8 13 19 1 8 4 3 2 3 3 5 4 3 4 5 5 5 1 4 5 4 3 4 3 3 4 5 5 5 6 7 7 6 6 7 7 7 10 10 9 8 9 10 9 9 9 8 9 8 10 10 11 10 10 10 9 8 8 9 9 8 9
4 2 5 2 1 0 1 2 3 1 1 1 2 3 3 3 6 4 2 0 4 7 9 7 14 13 9 3 4 5 2 1 3 3 1 2 4 5 5 3 1 3 3 1 1 2 3 3 4 5 5 6 6 6 6 7 7 7 7 6 8 7 7 8 7 8 9 9 10 9 10 10 9 11 12 12 11 12 11 10 9 8 10 9 9 8
3 3 8 8 11 11 9 7 5 3 7 3 3 4 7 7 4 6 6 4 9 8 13 9 10 14 14 1 3 5 3 0 3 3 2 2 2 5 5 5 5 4 4 3 4 1 3 5 5 5 6 6 7 8 8 8 8 8 7 8 6 7 6 8 7 8 9 9 10 10 12 11 11 12 13 12 11 12 11 10 10 10 9 9 10 9
2 1 3 7 11 12 5 0 2 7 4 7 7 10 7 7 9 6 3 5 14 13 12 10 13 17 22 19 12 10 2 1 1 4 5 6 5 6 6 7 7 5 5 5 4 2 2 4 8 8 8 9 8 7 8 8 9 8 8 8 8 8 8 7 7 7 9 10 10 9 11 12 13 12 11 11 10 9 10 11 10 10 10 9 10 11
2 2 5 5 8 9 4 3 2 9 7 9 7 6 8 7 8 11 11 16 13 5 14 12 11 11 23 26 15 6 6 9 10 6 7 6 8 7 8 8 6 5 6 6 5 4 6 6 6 8 10 10 11 10 8 9 9 9 9 9 7 6 6 6 7 7 7 8 10 11 12 11 10 11 11 9 8 9 10 9 9 10 9 9 10 11
4 5 5 4 8 9 7 8 7 5 3 3 7 9 10 12 10 11 15 18 12 11 15 12 6 12 20 22 18 4 5 11 9 6 5 5 6 6 6 6 6 7 7 6 6 6 6 7 8 9 10 11 9 9 11 9 9 8 9 9 8 8 10 9 7 9 8 8 11 12 10 8 8 8 9 9 10 10 10 10 9 8 9 10 10 9
2 3 4 3 7 9 9 11 10 11 9 6 5 6 8 12 16 18 19 18 18 15 13 16 18 18 16 20 19 10 7 13 14 10 12 12 13 12 9 8 8 8 8 10 9 7 7 9 9 11 11 9 9 11 9 10 10 11 12 11 10 10 10 9 11 11 10 11 13 10 8 8 8 9 9 10 12 11 11 11 10 10 10 11 10 10
6 5 6 3 3 11 15 12 9 9 9 12 8 9 11 11 14 18 16 14 13 14 17 20 19 20 18 15 14 16 13 10 11 12 13 16 15 11 7 7 9 10 11 10 8 9 9 9 9 10 10 10 9 12 13 13 12 11 10 9 11 12 11 10 11 12 12 14 12 9 8 9 10 9 11 11 10 10 10 11 11 11 11 10 10 10
5 2 2 3 6 7 11 11 10 7 6 6 8 10 13 15 15 8 9 7 10 15 15 12 13 18 18 6 9 18 15 8 12 17 16 11 11 10 8 9 11 12 11 10 9 9 10 10 10 10 10 9 10 11 11 11 12 10 12 13 13 13 9 9 11 13 13 13 9 9 11 11 9 10 11 10 12 11 10 9 10 11 11 10 10 9
6 4 4 3 5 9 9 4 5 2 0 5 12 20 21 14 12 12 10 10 15 13 10 11 16 14 15 13 11 15 18 17 14 13 16 16 12 8 8 10 11 12 12 11 11 11 9 9 9 10 10 9 9 9 10 12 10 11 13 13 15 7 9 12 13 13 12 11 10 10 11 10 10 10 10 11 10 9 10 11 11 11 12 13 10 9
5 8 6 5 5 3 8 2 2 3 11 12 13 14 12 16 16 16 17 20 17 10 10 12 14 12 12 14 17 18 18 16 13 13 13 12 11 9 7 7 10 9 8 10 11 9 8 8 8 9 9 9 8 8 8 8 10 12 11 8 4 9 11 12 12 12 12 10 10 11 10 9 10 11 11 9 9 9 11 11 13 11 10 9 9 11
7 7 6 5 3 5 4 2 3 12 12 10 4 4 12 16 15 17 20 19 17 16 13 14 14 16 19 19 18 18 16 16 14 14 17 17 14 12 11 11 13 13 14 15 14 12 11 11 11 10 7 7 8 7 6 5 7 8 5 7 9 10 11 11 11 10 10 11 10 9 9 11 11 11 9 9 9 10 11 11 10 10 9 10 11 11
7 9 3 3 3 2 3 5 10 9 2 2 4 9 13 12 12 9 13 14 16 16 16 17 18 19 19 20 19 17 16 16 13 12 16 19 13 10 11 13 12 11 13 12 12 13 12 11 11 9 8 5 5 7 5 7 5 5 7 5 8 8 9 10 10 10 9 10 10 11 11 11 11 10 9 10 10 11 11 10 11 11 8 8 8 7
10 4 4 5 5 8 6 11 14 6 15 11 12 10 4 3 4 9 12 13 14 15 14 14 17 18 18 17 17 16 12 8 10 15 16 10 8 7 12 14 9 12 11 10 9 10 10 7 7 7 5 5 5 5 5 5 3 5 5 5 7 8 8 9 10 11 12 12 10 11 10 11 11 10 9 10 11 11 11 11 10 8 8 9 8 9
9 11 7 9 6 8 10 10 8 8 13 14 16 14 8 6 8 6 7 11 6 8 11 14 16 17 17 15 12 8 6 6 12 15 11 3 4 9 7 6 7 7 7 7 7 7 7 6 5 5 3 5 6 5 3 2 4 5 5 6 6 8 8 9 12 11 10 10 8 9 9 9 9 9 9 10 12 12 10 9 7 9 9 11 10 10
12 12 7 11 6 7 9 11 9 12 11 6 13 9 7 6 8 4 5 12 5 11 8 8 9 11 11 9 6 6 5 8 11 12 10 8 10 9 8 8 8 7 6 6 6 6 6 6 5 6 6 6 7 8 4 3 4 5 6 7 7 7 9 11 12 10 10 9 8 8 8 9 9 9 10 11 11 10 10 11 10 9 8 9 9 9
13 11 9 11 12 12 10 11 11 6 8 7 8 6 1 4 3 3 6 4 3 7 8 5 6 6 9 7 7 5 6 10 9 7 11 11 8 6 6 7 9 11 10 8 8 7 6 5 6 8 8 7 8 6 5 4 4 6 7 7 6 7 10 12 10 6 5 6 8 8 9 9 10 10 11 11 9 9 10 9 8 10 9 8 7 7
8 9 12 16 14 13 17 13 7 6 5 6 10 7 1 1 4 8 11 2 4 2 5 8 9 8 8 10 8 6 4 4 7 11 11 10 12 14 11 5 5 6 9 9 10 9 9 8 5 8 9 7 5 5 3 3 5 7 7 6 6 11 12 7 5 6 6 6 7 7 8 8 10 11 9 10 11 10 9 9 10 9 9 9 7 7
2 0 3 10 15 15 13 14 13 8 4 6 5 0 3 2 9 9 1 0 3 8 1 4 4 4 4 3 2 2 6 9 9 10 12 12 9 8 8 8 7 7 8 8 9 8 8 9 9 9 8 6 5 4 3 3 5 8 6 5 10 12 5 5 6 6 6 7 7 7 7 8 7 9 9 8 8 9 8 7 8 9 10 8 9 10
5 3 3 5 3 5 7 11 10 10 2 7 2 1 2 5 1 1 5 4 4 5 8 6 4 2 4 5 4 5 7 9 9 9 10 11 12 12 12 12 12 10 9 10 14 12 6 8 12 11 10 7 4 3 3 3 7 8 7 9 12 4 4 5 6 6 7 7 8 8 8 8 9 8 7 8 9 10 9 8 9 8 8 9 9 9
4 7 3 4 6 4 5 8 5 0 1 3 4 1 1 0 0 1 2 7 5 5 8 9 5 2 2 2 5 9 10 10 12 11 13 14 14 14 13 12 11 10 8 7 6 9 8 9 10 11 11 8 5 4 4 5 8 8 8 13 4 3 4 5 5 6 6 7 7 8 8 8 9 9 9 10 9 9 9 8 8 8 8 8 9 8
7 11 3 8 1 5 5 2 1 2 3 1 4 2 3 3 2 3 2 1 2 4 1 4 9 6 1 1 3 4 8 7 9 10 10 12 13 12 12 12 11 11 11 10 10 8 6 8 11 12 12 11 6 5 5 4 8 9 11 7 2 4 5 5 5 6 6 6 7 7 7 8 8 8 8 9 10 10 9 10 10 9 7 8 8 8
3 3 1 3 4 3 4 5 1 3 2 4 2 0 1 2 3 0 1 4 3 4 3 4 5 8 6 2 4 5 4 7 9 10 10 11 12 13 12 11 12 10 9 8 8 8 7 8 9 10 13 15 8 6 5 5 6 10 10 2 3 4 4 5 5 5 5 5 6 7 8 9 7 8 9 9 8 9 9 10 9 9 8 8 8 8
0 1 3 1 2 2 5 1 5 4 2 5 7 6 4 3 3 1 0 2 3 4 5 4 5 6 7 5 3 6 8 7 7 10 9 8 10 12 13 13 12 11 10 11 11 7 8 6 9 12 13 14 12 5 6 5 7 8 4 3 3 4 4 4 5 5 5 6 6 6 7 9 8 8 8 8 7 7 8 8 8 9 9 9 9 9
4 0 4 2 2 5 4 6 6 5 4 4 5 3 3 2 2 2 2 3 4 4 4 5 4 5 5 7 6 5 8 8 7 8 9 10 10 11 11 12 13 14 14 10 8 6 6 7 9 12 13 14 14 5 6 6 6 5 4 4 4 4 4 5 5 6 6 6 6 6 6 7 9 9 7 7 7 8 7 7 8 9 9 9 9 9
2 5 3 1 1 4 5 6 8 9 5 4 2 2 4 5 7 6 6 5 4 5 6 6 3 5 4 8 9 7 7 8 7 6 7 10 10 11 13 14 13 12 13 14 11 6 7 7 9 11 11 14 12 6 6 6 5 4 4 4 4 5 6 6 5 6 6 6 6 6 6 6 7 7 7 7 6 6 6 8 7 6 5 4 6 9
2 7 4 5 7 7 8 6 1 6 5 5 5 8 9 8 7 7 6 6 6 7 7 7 7 5 5 7 7 6 7 10 12 9 9 9 10 12 12 14 14 15 15 13 8 7 7 8 9 11 13 14 9 6 7 6 5 4 5 5 5 6 7 6 7 7 7 6 6 6 7 7 7 7 7 8 7 7 5 5 7 5 7 6 6 7
8 5 4 6 5 7 3 4 2 3 5 7 10 8 7 6 6 7 7 7 7 6 7 8 10 9 8 7 5 7 9 10 12 11 13 13 14 13 12 12 13 14 15 14 12 12 9 9 9 10 13 13 7 7 7 6 5 5 5 6 7 8 8 8 7 7 7 7 7 7 7 7 7 7 7 7 8 8 8 7 7 9 9 7 8 9
Wind_Direction
48 149 174 199 213 189 206 220 209 62 24 351 331 310 340 0 356 91 95 44 334 337 249 239 251 259 258 256 262 266 277 270 257 245 233 222 224 228 232 238 241 239 238 221 203 186 183 180 178 173 168 173 171 176 180 176 178 181 174 166 179 181 169 164 163 168 174 174 172 160 178 189 180 171 159 153 153 176 189 181 211 155 143 142 151 155
35 203 217 222 226 279 203 170 82 72 20 34 14 8 314 147 294 40 134 177 27 65 294 302 292 275 269 265 264 264 263 260 246 242 243 242 236 230 227 239 243 242 245 213 215 196 170 169 169 163 165 167 170 188 184 187 185 180 172 174 174 177 176 175 173 170 179 188 186 173 179 162 182 189 182 184 170 171 171 170 171 160 139 141 150 158
97 194 227 220 118 102 52 51 61 32 347 87 324 334 343 284 144 67 67 315 141 111 263 270 294 285 277 266 267 260 252 256 239 225 234 230 236 237 232 235 243 239 230 206 204 178 171 165 165 166 172 183 185 181 186 188 175 178 180 178 174 180 178 174 166 166 183 175 172 161 163 166 176 196 200 180 153 136 158 163 162 159 151 155 156 162
187 228 238 100 112 92 64 85 49 119 55 296 161 249 225 245 73 284 340 345 234 203 267 320 303 284 282 268 248 244 238 245 247 239 244 228 232 233 229 229 231 224 217 209 193 191 179 173 170 168 178 186 174 176 183 182 182 182 186 177 178 182 178 167 166 170 172 167 170 182 159 169 154 158 132 121 127 136 140 159 152 149 159 163 163 164
196 60 38 104 84 130 126 124 129 134 230 211 214 218 241 224 180 95 127 255 234 227 4 317 287 270 264 278 285 249 230 239 260 261 256 252 234 232 243 258 237 227 203 208 205 191 180 176 185 185 183 168 180 185 185 184 184 188 191 181 177 175 178 172 159 165 163 156 153 127 76 89 84 87 128 137 168 182 172 143 165 172 154 164 165 170
226 221 223 98 137 115 137 142 195 164 240 242 206 193 211 270 354 60 30 15 352 318 291 42 353 291 302 279 269 309 51 218 243 227 236 241 243 240 242 242 250 252 232 206 207 194 185 185 183 179 175 181 188 190 192 185 186 178 181 175 171 168 175 176 166 165 166 168 164 156 154 159 160 171 175 189 188 179 181 181 141 137 171 166 169 176
187 349 216 140 135 133 187 187 203 161 212 273 274 6 6 323 80 86 4 43 338 272 256 292 41 277 311 284 280 283 282 264 257 222 241 244 245 232 229 230 227 230 239 236 220 191 158 184 178 183 184 185 186 199 178 179 186 179 175 178 174 171 176 173 167 168 168 169 178 181 185 183 186 182 203 180 152 168 162 147 167 165 165 174 172 177
92 184 71 96 118 131 171 191 196 154 167 243 304 314 352 104 96 90 77 150 233 317 276 170 172 257 288 268 263 264 261 261 254 249 252 253 247 232 217 202 219 213 198 186 192 210 184 176 177 184 185 182 190 181 178 185 185 182 178 176 176 165 168 176 167 175 173 174 179 182 192 193 194 195 184 173 160 144 146 158 168 160 169 173 175 178
146 163 147 154 162 152 187 213 180 167 166 189 233 269 95 79 100 78 132 284 259 38 292 176 178 316 241 248 216 231 259 264 252 238 236 239 244 244 200 186 173 154 147 148 177 190 191 166 179 171 175 185 175 177 182 184 182 177 173 172 175 170 169 175 174 165 172 174 178 183 190 200 196 181 160 149 150 156 160 167 153 166 165 172 171 176
360 144 193 167 151 192 122 16 354 176 149 251 211 88 98 77 54 82 10 66 325 24 267 166 183 221 283 211 231 220 222 252 238 225 224 234 234 197 127 119 117 106 92 77 100 116 109 136 160 161 159 165 178 177 174 175 173 178 171 174 178 178 166 170 177 165 174 175 170 182 193 202 197 183 160 160 164 162 164 170 166 166 167 173 167 174
106 205 162 91 190 109 119 56 48 45 81 136 178 89 61 53 76 352 67 84 28 262 255 168 191 165 292 290 190 152 214 208 226 224 245 78 90 103 123 134 147 160 150 141 118 98 84 57 121 129 152 167 164 167 166 173 175 175 172 172 180 182 164 166 171 166 177 181 181 186 192 201 200 190 171 168 170 162 171 176 170 170 172 171 175 169
135 48 310 94 51 120 103 68 15 21 111 127 130 125 90 6 27 28 347 48 138 260 351 187 167 190 200 316 18 88 10 185 160 256 191 146 141 132 145 161 171 170 166 156 140 140 118 102 107 145 155 166 169 164 172 176 173 176 177 173 179 179 170 165 162 169 177 183 192 194 195 201 203 192 184 181 178 176 180 177 170 164 159 175 175 177
215 218 134 48 309 148 135 89 2 18 350 23 135 112 118 226 68 290 84 259 198 236 259 331 247 270 236 234 102 59 25 2 321 239 102 141 132 157 183 185 184 180 158 157 164 160 163 185 197 199 197 176 178 181 179 178 176 176 177 177 177 188 171 166 160 174 182 188 194 195 199 203 202 199 189 185 180 178 180 174 164 168 180 170 179 190
269 134 152 125 37 260 172 131 155 29 237 190 171 161 130 196 192 233 223 215 240 277 299 352 18 246 265 284 242 250 255 273 287 276 260 157 200 231 186 172 179 191 180 179 172 171 188 199 204 201 199 192 185 181 183 180 178 179 178 178 180 190 178 164 169 176 185 195 195 196 203 204 199 201 190 190 182 178 178 175 174 180 184 182 191 184
218 304 238 125 249 172 206 197 177 171 177 201 189 165 176 163 173 210 174 206 216 203 220 294 80 236 121 234 274 90 146 28 24 324 302 22 226 282 344 328 237 208 200 178 173 181 198 205 194 193 194 191 187 182 183 183 184 179 183 182 183 182 185 172 171 171 184 192 198 200 207 210 203 200 189 190 179 170 175 180 179 186 185 188 190 193
210 223 217 181 135 159 188 209 164 116 152 216 205 210 242 223 108 202 197 101 311 42 308 226 212 243 220 295 287 271 266 270 286 287 291 269 282 34 314 287 278 229 198 181 186 206 219 203 189 182 189 193 191 186 182 183 180 184 189 187 189 185 184 180 169 177 180 189 193 202 204 210 206 191 181 178 171 171 179 182 185 188 190 192 190 190
143 229 99 78 126 173 197 168 211 144 190 213 140 218 200 21 95 333 2 71 109 22 254 170 293 276 313 286 262 248 255 253 248 230 249 287 290 237 274 272 270 266 178 181 201 213 227 206 189 186 186 189 186 185 187 186 182 183 185 190 191 186 183 188 184 179 180 182 188 199 202 205 207 193 187 180 175 173 180 183 188 186 190 186 185 172
147 198 325 98 188 285 19 298 8 32 60 102 189 221 80 47 91 144 216 53 174 223 263 139 249 284 47 284 41 87 298 296 271 202 216 235 228 223 242 246 252 268 207 206 205 207 206 196 190 187 187 185 186 187 187 189 186 187 187 188 189 189 191 193 188 185 176 178 187 192 198 204 203 198 190 179 177 173 174 180 183 182 180 188 177 162
144 254 222 356 359 359 351 14 295 42 47 111 176 330 141 253 255 242 102 245 242 240 277 248 236 258 225 255 267 307 308 311 280 238 220 227 216 221 236 249 265 251 214 200 228 223 194 184 186 187 188 188 185 185 187 189 187 187 191 192 192 197 198 194 191 183 178 177 182 189 195 198 198 193 189 186 177 176 182 183 183 183 183 169 162 159
93 195 293 325 4 117 51 143 199 200 344 129 12 347 47 109 189 163 194 201 130 243 227 276 268 258 237 240 281 267 277 251 259 254 227 208 195 214 229 225 208 196 204 229 264 261 213 188 187 187 188 189 186 184 187 187 187 193 192 191 198 201 199 196 193 180 178 179 178 184 187 198 198 194 189 186 182 185 188 185 179 176 171 176 166 170
257 144 234 269 303 97 206 199 212 158 173 243 168 255 239 138 293 108 299 183 175 193 212 265 282 256 255 213 240 224 227 255 262 242 238 203 196 202 208 199 159 183 188 214 231 251 248 194 195 206 203 204 194 185 187 190 194 194 192 197 195 196 202 208 204 186 189 181 188 184 190 191 194 198 190 187 189 187 188 181 179 178 175 156 178 165
192 143 201 119 351 228 230 196 198 187 189 187 185 203 193 161 160 197 257 199 186 194 222 218 254 283 268 130 240 351 351 53 66 85 69 65 64 9 358 150 159 161 197 198 210 191 178 184 188 182 181 185 191 207 202 204 196 201 202 199 192 192 199 200 196 190 189 193 194 196 192 190 190 189 186 192 192 190 186 182 182 176 163 177 177 173
167 153 157 180 207 210 217 227 210 69 193 223 194 218 200 197 166 166 214 244 117 260 314 216 295 262 256 78 344 339 350 32 61 50 21 343 324 310 292 231 177 170 184 196 186 174 174 189 198 187 187 197 205 213 210 208 206 207 206 198 197 194 209 203 194 184 184 189 193 198 196 193 191 182 185 188 192 193 186 184 181 175 177 179 173 175
74 133 160 263 142 75 61 101 37 183 112 339 276 252 159 204 191 195 181 184 173 193 207 236 236 261 275 164 250 194 148 95 351 5 316 296 285 302 259 210 202 190 223 206 178 157 158 168 175 177 204 211 217 219 217 217 215 213 208 204 197 205 208 210 199 184 185 190 195 188 187 196 195 189 188 191 191 193 188 181 182 178 183 180 171 177
150 243 170 156 283 187 322 6 342 5 44 238 219 197 218 214 186 195 181 77 247 201 202 173 239 247 279 156 144 155 118 152 233 265 209 283 291 276 280 290 274 220 212 243 288 206 162 162 198 216 225 222 220 224 222 220 220 213 213 208 210 214 210 214 209 189 186 185 190 190 190 192 190 198 198 195 192 194 186 183 180 180 183 177 179 178
162 183 163 197 215 221 223 204 200 223 218 225 222 217 198 199 170 105 205 164 226 229 224 217 251 258 256 77 66 70 118 164 235 217 238 246 263 296 310 314 288 283 297 314 299 248 213 211 213 224 230 232 225 217 216 219 219 217 213 213 206 209 209 214 208 199 185 185 188 196 195 193 192 199 202 200 195 189 185 181 181 181 185 181 179 178
159 254 193 201 215 230 229 156 206 148 105 185 220 201 211 196 201 185 149 187 218 228 233 233 237 260 272 261 256 269 337 282 310 330 326 299 280 255 249 258 263 263 274 273 249 224 206 209 223 223 221 225 229 222 219 216 219 219 217 217 210 204 204 211 213 208 194 188 193 198 204 197 199 196 200 201 197 185 183 183 181 180 185 182 182 183
88 210 230 231 246 255 251 215 100 136 168 215 213 223 214 212 202 205 202 225 221 232 253 235 232 250 263 270 261 272 293 283 277 272 276 276 270 261 254 259 255 274 276 276 289 270 252 250 244 236 230 219 225 220 219 218 216 216 216 222 214 206 202 205 210 216 206 192 199 206 207 205 198 196 196 195 191 186 185 180 180 183 180 177 187 190
139 213 235 237 252 258 267 287 295 287 226 215 210 205 203 210 213 211 226 237 230 219 243 252 230 237 257 268 276 240 254 272 281 287 271 261 279 287 287 269 259 258 267 270 261 258 256 260 254 244 237 232 222 217 220 217 219 216 219 219 212 202 207 193 194 213 211 203 208 213 205 199 198 195 191 188 190 188 183 181 177 176 180 185 190 190
82 271 256 226 271 273 273 267 269 277 281 268 261 252 214 207 213 216 225 229 230 239 247 256 257 252 256 268 277 288 276 284 290 291 293 293 278 268 271 274 260 260 262 263 266 265 260 256 250 246 244 236 218 219 219 219 218 216 214 215 213 210 212 180 198 203 207 211 216 210 198 199 197 192 186 189 193 191 184 178 174 176 184 190 191 188
139 237 201 196 234 265 261 259 260 259 260 268 262 251 252 240 226 220 225 233 240 249 247 251 260 268 257 258 291 286 276 283 293 288 275 272 283 286 274 269 269 262 261 265 270 271 266 260 253 252 249 242 222 216 217 218 218 216 215 214 214 214 208 190 200 206 207 215 216 203 197 198 201 187 192 195 191 190 183 178 174 178 184 188 189 187
155 245 65 157 204 247 250 249 251 243 244 255 266 259 249 244 247 234 229 222 225 231 238 250 257 257 268 291 269 279 285 279 277 277 279 282 276 283 288 277 274 270 267 261 258 261 268 268 266 262 256 248 233 220 217 219 219 209 212 213 214 213 192 190 204 210 212 215 205 201 201 203 195 195 198 187 193 190 184 175 175 179 183 184 187 188
173 166 168 162 207 243 249 176 238 248 183 237 237 237 236 240 243 251 251 232 228 227 236 233 243 255 268 275 277 274 275 275 271 278 284 279 275 270 264 266 265 267 267 267 265 265 266 264 260 258 260 262 259 246 226 218 216 213 216 214 217 185 179 199 206 211 215 211 203 204 203 197 197 199 196 196 187 181 180 182 181 181 183 188 184 176
163 176 196 148 227 235 254 202 170 220 234 232 226 227 221 231 228 230 237 238 242 222 227 229 250 259 267 268 262 264 269 271 273 271 266 273 286 284 273 268 265 265 272 275 275 275 269 264 263 260 257 259 265 260 250 224 221 226 222 214 169 180 199 201 210 210 214 207 206 204 201 195 195 200 197 186 179 177 182 184 191 188 182 174 175 183
182 189 204 173 193 227 258 119 242 232 240 241 219 191 217 230 230 228 235 240 242 244 248 253 252 250 250 254 260 265 268 272 271 275 284 281 278 281 280 277 278 279 279 280 284 282 276 274 272 274 281 282 275 275 268 246 218 229 204 181 193 196 197 206 209 211 210 208 208 199 197 197 197 198 192 183 177 177 183 188 188 184 181 177 180 182
186 188 170 224 186 286 266 222 244 241 181 352 282 228 230 227 228 236 254 248 245 240 236 240 243 248 252 256 260 261 266 272 282 276 269 275 280 281 285 275 274 275 272 271 273 275 275 275 277 278 276 276 292 291 265 249 230 200 215 187 193 196 203 203 208 213 208 213 204 201 199 196 196 195 187 179 176 179 183 185 184 181 175 174 179 180
185 182 197 237 182 229 214 237 247 316 305 283 280 258 208 193 177 196 240 242 231 233 234 238 242 247 248 250 255 264 277 300 290 279 265 272 292 271 257 269 267 266 270 268 265 272 283 300 296 285 288 292 291 291 276 251 188 194 190 186 203 198 206 201 210 212 209 213 202 201 197 194 194 193 182 175 177 183 183 180 178 173 167 171 176 175
184 201 172 216 220 201 224 251 258 249 248 253 243 260 256 218 222 205 213 257 242 239 223 231 238 243 249 253 258 272 303 306 282 275 285 299 254 278 296 286 285 290 296 297 309 305 301 303 309 309 326 305 297 277 264 204 179 183 194 207 204 201 210 206 218 216 213 211 198 198 193 192 189 184 176 174 184 184 181 173 169 173 170 173 173 179
207 200 191 203 226 216 219 227 235 243 244 244 267 256 250 232 227 207 210 258 227 244 233 235 247 246 247 256 262 255 250 258 262 273 300 350 356 337 329 313 307 301 296 304 315 312 307 304 306 299 313 313 296 290 269 210 185 186 215 214 211 208 213 218 224 214 210 206 192 186 181 181 180 177 176 182 184 175 171 175 175 169 166 175 177 182
204 209 197 218 213 222 233 233 235 215 252 240 256 264 228 179 89 105 251 300 334 340 338 302 276 318 332 315 293 264 226 254 275 310 343 333 326 320 339 333 329 324 318 313 306 293 294 308 330 317 307 295 282 280 261 216 199 217 224 228 210 215 223 225 223 208 200 191 184 181 179 177 177 178 178 177 167 172 176 167 160 168 170 171 171 168
203 212 208 218 217 218 221 241 255 258 255 259 263 264 9 129 120 231 246 260 325 10 39 44 54 38 26 21 24 8 319 308 291 296 310 326 339 335 335 329 293 285 295 302 300 309 312 305 289 277 282 282 290 294 258 213 217 236 236 228 215 228 229 221 193 187 189 180 175 175 175 174 176 172 175 173 174 169 164 166 164 159 162 161 156 153
10 319 269 218 224 227 230 235 236 262 224 208 249 145 185 117 226 233 25 165 340 341 341 106 98 87 72 31 330 268 279 299 307 314 324 328 323 302 307 313 315 312 299 293 291 300 302 305 303 296 293 285 282 277 257 237 244 253 249 232 234 236 208 183 184 176 173 170 167 166 166 169 171 169 169 163 151 155 158 156 152 158 158 159 159 160
196 183 213 222 245 242 231 239 238 229 311 13 316 318 69 201 133 173 278 317 20 341 343 1 67 47 58 342 308 286 290 306 312 314 312 315 324 326 327 330 329 321 310 314 316 311 312 302 299 296 289 291 270 253 246 229 248 256 252 243 246 223 183 179 171 169 168 163 162 166 166 165 160 155 151 155 157 153 154 152 150 153 153 154 155 156
173 249 211 230 176 248 223 240 225 153 94 329 32 172 321 146 179 239 27 333 355 355 351 341 351 41 30 358 315 321 318 318 319 324 325 322 323 326 324 324 322 318 308 284 268 281 307 294 289 293 294 287 266 244 237 220 252 253 246 248 242 184 173 165 166 163 164 167 164 157 158 156 154 151 154 154 152 149 146 151 151 152 159 156 155 154
164 220 217 242 212 201 245 238 254 156 167 326 99 153 201 238 194 180 160 194 288 335 334 342 314 319 357 303 291 287 306 305 301 306 313 308 311 313 316 315 314 312 307 303 298 299 300 284 287 293 293 287 266 250 235 225 240 261 253 260 175 189 170 165 160 160 164 164 161 155 152 148 150 152 151 153 151 151 151 150 151 152 157 152 152 153
359 103 114 111 278 295 281 236 191 90 18 349 341 256 229 247 282 143 45 358 311 283 296 293 291 300 310 320 323 297 260 284 297 300 302 307 308 306 309 312 312 311 307 302 298 293 284 289 288 287 287 290 271 253 244 236 225 247 255 243 194 179 169 160 158 161 161 154 152 151 147 146 146 147 149 150 153 152 155 153 157 155 157 158 158 156
307 75 55 150 260 299 274 55 62 303 338 340 325 310 295 221 198 161 146 230 251 260 279 261 259 280 283 296 264 267 287 285 286 287 291 293 297 300 305 308 305 304 307 308 300 300 296 291 291 290 289 288 286 247 249 236 238 240 263 214 192 168 158 159 159 155 149 151 148 149 151 147 150 146 147 151 148 147 150 154 156 157 160 165 162 161
310 282 58 213 196 220 234 296 318 301 279 253 248 277 277 285 294 279 232 227 243 255 241 257 256 275 288 297 282 280 278 281 282 288 294 296 297 299 298 298 301 307 304 298 292 285 278 278 277 282 285 283 282 263 246 240 245 244 225 196 174 158 154 159 161 156 155 151 150 155 157 150 146 145 147 149 147 145 148 157 160 161 166 168 166 163
186 12 222 283 262 268 300 307 289 295 320 300 272 254 250 290 310 309 303 294 277 287 286 279 229 238 259 272 285 290 287 283 277 270 277 286 294 296 297 298 298 294 296 303 304 296 271 275 276 271 273 273 276 273 254 244 237 225 201 187 170 163 161 164 156 150 151 151 149 156 155 148 152 150 145 140 136 136 147 157 158 157 159 178 177 173
292 247 216 251 285 281 256 271 21 308 309 300 321 308 309 306 311 303 304 308 305 302 300 303 304 292 265 272 276 277 286 297 301 302 293 286 281 283 288 292 294 297 295 291 290 282 273 260 258 270 271 270 276 265 250 241 229 214 199 182 177 170 169 165 156 154 159 157 156 157 152 151 151 145 143 139 132 120 88 93 137 147 154 158 157 153
236 240 248 224 222 254 270 248 235 260 278 283 288 291 292 303 316 322 320 316 315 314 318 329 322 317 312 296 286 294 295 297 298 303 303 299 294 288 283 279 285 290 292 297 304 299 282 267 261 260 267 270 270 254 243 236 222 210 203 188 183 175 171 161 161 162 163 162 166 163 157 155 152 154 142 138 134 127 122 108 95 93 100 114 139 154